Weather History for KFWC - January, 2013

Change the Weather History Date:

Friday, January 11, 2013

  Actual Average (KMVN) Record (KMVN)
Temperature  
Mean Temperature 56 °F -  
Max Temperature 60 °F 36 °F 64 °F (2005)
Min Temperature 51 °F 21 °F -7 °F (1997)
Degree Days  
Heating Degree Days 10    
Growing Degree Days 6 (Base 50)    
Moisture  
Dew Point 52 °F    
Average Humidity 86    
Maximum Humidity 94    
Minimum Humidity 72    
Precipitation  
Precipitation 0.22 in - - ()
Sea Level Pressure  
Sea Level Pressure 29.89 in    
Wind  
Wind Speed 11 mph (SSW)    
Max Wind Speed 20 mph    
Max Gust Speed 25 mph    
Visibility 10 miles    
Events Rain    
Averages and records for this station are not official NWS values.
T = Trace of Precipitation, MM = Missing Value Source: NWS Daily Summary

Daily Weather History Graph

Daily Weather History Graph

Search for Another Location

Airport or City:

Trip Planner

Search our weather history database for the weather conditions in past years. The results will help you decide how hot, cold, wet, or windy it might be!

Date:

Astronomy

Jan. 11, 2013 Rise Set
Actual Time 7:10 AM CST 4:53 PM CST
Civil Twilight 6:41 AM CST 5:22 PM CST
Nautical Twilight 6:08 AM CST 5:55 PM CST
Astronomical Twilight 5:36 AM CST 6:27 PM CST
Moon 6:43 AM CST (1/11) 5:10 PM CST (1/11)
Length of Visible Light 10h 41m
Length of Day
9h 42m
Waning Crescent, 0% of the Moon is Illuminated
Jan 11
Waning Crescent
Jan 11
New
Jan 18
First Quarter
Jan 26
Full
Feb 3
Last Quarter

Hourly Weather History & Observations

Time (CST) Temp. Dew Point Humidity Pressure Visibility Wind Dir Wind Speed Gust Speed Precip Events Conditions
12:15 AM 60.8 °F 57.2 °F 88% 29.86 in 10.0 mi South 13.8 mph 24.2 mph 0.04 in Rain Rain
12:35 AM 60.8 °F 59.0 °F 94% 29.84 in 10.0 mi South 16.1 mph 21.9 mph 0.12 in Rain Rain
12:55 AM 60.8 °F 57.2 °F 88% 29.84 in 10.0 mi South 10.4 mph - 0.16 in Rain Light Rain
1:15 AM 60.8 °F 57.2 °F 88% 29.85 in 7.0 mi South 9.2 mph - N/A Rain Rain
1:35 AM 59.0 °F 57.2 °F 94% 29.85 in 10.0 mi South 9.2 mph - 0.02 in Rain Light Rain
1:55 AM 59.0 °F 57.2 °F 94% 29.85 in 10.0 mi South 8.1 mph - 0.02 in Rain Light Rain
2:15 AM 59.0 °F 55.4 °F 88% 29.85 in 10.0 mi South 10.4 mph - N/A   Drizzle
2:35 AM 57.2 °F 55.4 °F 94% 29.86 in 10.0 mi South 12.7 mph 17.3 mph 0.02 in Rain Rain
2:55 AM 57.2 °F 55.4 °F 94% 29.86 in 10.0 mi SSW 10.4 mph - 0.03 in   Overcast
3:15 AM 57.2 °F 55.4 °F 94% 29.84 in 10.0 mi SW 5.8 mph - N/A Rain Rain
3:35 AM 57.2 °F 53.6 °F 88% 29.85 in 10.0 mi SSW 8.1 mph - 0.01 in   Scattered Clouds
3:55 AM 55.4 °F 53.6 °F 94% 29.85 in 10.0 mi SSW 10.4 mph - 0.01 in   Scattered Clouds
4:15 AM 55.4 °F 53.6 °F 94% 29.85 in 10.0 mi SSW 8.1 mph - N/A   Scattered Clouds
4:35 AM 55.4 °F 53.6 °F 94% 29.85 in 10.0 mi SW 6.9 mph - N/A   Scattered Clouds
4:55 AM 55.4 °F 53.6 °F 94% 29.86 in 10.0 mi SW 6.9 mph - N/A   Mostly Cloudy
5:15 AM 55.4 °F 53.6 °F 94% 29.85 in 10.0 mi SSW 5.8 mph - N/A   Scattered Clouds
5:35 AM 55.4 °F 53.6 °F 94% 29.86 in 10.0 mi SSW 8.1 mph - N/A   Scattered Clouds
5:55 AM 55.4 °F 51.8 °F 88% 29.87 in 10.0 mi SSW 6.9 mph - N/A   Scattered Clouds
6:15 AM 55.4 °F 51.8 °F 88% 29.87 in 10.0 mi SSW 8.1 mph - N/A   Mostly Cloudy
6:35 AM 53.6 °F 51.8 °F 94% 29.89 in 10.0 mi SSW 9.2 mph - N/A   Scattered Clouds
6:55 AM 53.6 °F 51.8 °F 94% 29.89 in 10.0 mi SSW 9.2 mph - N/A   Scattered Clouds
7:15 AM 53.6 °F 51.8 °F 94% 29.91 in 10.0 mi SW 8.1 mph - N/A   Scattered Clouds
7:35 AM 53.6 °F 51.8 °F 94% 29.91 in 10.0 mi SW 6.9 mph - N/A   Clear
7:55 AM 53.6 °F 51.8 °F 94% 29.93 in 10.0 mi SW 6.9 mph - N/A   Clear
8:15 AM 55.4 °F 51.8 °F 88% 29.93 in 10.0 mi SW 8.1 mph - N/A   Scattered Clouds
8:35 AM 53.6 °F 51.8 °F 94% 29.94 in 10.0 mi WSW 8.1 mph - N/A   Mostly Cloudy
8:55 AM 55.4 °F 50.0 °F 82% 29.94 in 10.0 mi WSW 11.5 mph 25.3 mph N/A   Mostly Cloudy
9:15 AM 55.4 °F 50.0 °F 82% 29.94 in 10.0 mi SW 12.7 mph 17.3 mph N/A   Mostly Cloudy
9:35 AM 55.4 °F 50.0 °F 82% 29.95 in 10.0 mi SW 10.4 mph 17.3 mph N/A   Scattered Clouds
9:55 AM 55.4 °F 50.0 °F 82% 29.94 in 10.0 mi SW 13.8 mph - N/A   Clear
10:15 AM 55.4 °F 50.0 °F 82% 29.94 in 10.0 mi SW 12.7 mph 20.7 mph N/A   Clear
10:35 AM 55.4 °F 51.8 °F 88% 29.94 in 10.0 mi SSW 10.4 mph - N/A   Scattered Clouds
10:55 AM 55.4 °F 51.8 °F 88% 29.93 in 10.0 mi SSW 15.0 mph - N/A   Scattered Clouds
11:15 AM 57.2 °F 51.8 °F 82% 29.93 in 10.0 mi SSW 11.5 mph 16.1 mph N/A   Clear
11:35 AM 57.2 °F 51.8 °F 82% 29.92 in 10.0 mi SSW 11.5 mph 20.7 mph N/A   Clear
11:55 AM 57.2 °F 51.8 °F 82% 29.91 in 10.0 mi SSW 11.5 mph 17.3 mph N/A   Clear
12:15 PM 57.2 °F 51.8 °F 82% 29.91 in 10.0 mi SSW 11.5 mph - N/A   Clear
12:35 PM 59.0 °F 51.8 °F 77% 29.90 in 10.0 mi SSW 12.7 mph - N/A   Scattered Clouds
12:55 PM 59.0 °F 51.8 °F 77% 29.89 in 10.0 mi SSW 12.7 mph - N/A   Scattered Clouds
1:15 PM 60.8 °F 51.8 °F 72% 29.89 in 10.0 mi SSW 12.7 mph - N/A   Scattered Clouds
1:35 PM 60.8 °F 53.6 °F 77% 29.89 in 10.0 mi SSW 15.0 mph 20.7 mph N/A   Clear
1:55 PM 60.8 °F 53.6 °F 77% 29.89 in 10.0 mi SSW 15.0 mph - N/A   Clear
2:15 PM 60.8 °F 53.6 °F 77% 29.89 in 10.0 mi South 16.1 mph 23.0 mph N/A   Clear
2:35 PM 59.0 °F 51.8 °F 77% 29.89 in 10.0 mi South 15.0 mph 20.7 mph N/A   Clear
2:55 PM 59.0 °F 51.8 °F 77% 29.89 in 10.0 mi South 19.6 mph 23.0 mph N/A   Clear
3:15 PM 59.0 °F 51.8 °F 77% 29.89 in 10.0 mi South 15.0 mph 24.2 mph N/A   Clear
3:35 PM 57.2 °F 51.8 °F 82% 29.89 in 10.0 mi South 19.6 mph 25.3 mph N/A   Clear
3:55 PM 57.2 °F 51.8 °F 82% 29.89 in 10.0 mi South 13.8 mph 21.9 mph N/A   Clear
4:15 PM 57.2 °F 51.8 °F 82% 29.89 in 10.0 mi South 13.8 mph - N/A   Clear
4:35 PM 57.2 °F 51.8 °F 82% 29.89 in 10.0 mi SSW 12.7 mph - N/A   Clear
4:55 PM 55.4 °F 51.8 °F 88% 29.90 in 10.0 mi South 10.4 mph - N/A   Clear
5:15 PM 55.4 °F 51.8 °F 88% 29.90 in 10.0 mi South 9.2 mph - N/A   Clear
5:35 PM 55.4 °F 50.0 °F 82% 29.89 in 10.0 mi South 8.1 mph - N/A   Clear
5:55 PM 53.6 °F 50.0 °F 88% 29.89 in 10.0 mi South 6.9 mph - N/A   Clear
6:15 PM 53.6 °F 48.2 °F 82% 29.90 in 10.0 mi South 5.8 mph - N/A   Clear
6:35 PM 53.6 °F 48.2 °F 82% 29.90 in 10.0 mi South 8.1 mph - N/A   Clear
6:55 PM 53.6 °F 48.2 °F 82% 29.90 in 10.0 mi South 8.1 mph - N/A   Clear
7:15 PM 51.8 °F 48.2 °F 88% 29.90 in 10.0 mi South 8.1 mph - N/A   Clear
7:35 PM 53.6 °F 48.2 °F 82% 29.89 in 10.0 mi South 8.1 mph - N/A   Clear
7:55 PM 53.6 °F 48.2 °F 82% 29.90 in 10.0 mi South 9.2 mph - N/A   Clear
8:15 PM 53.6 °F 48.2 °F 82% 29.90 in 10.0 mi South 8.1 mph - N/A   Clear
8:35 PM 53.6 °F 48.2 °F 82% 29.90 in 10.0 mi South 8.1 mph - N/A   Clear
8:55 PM 53.6 °F 48.2 °F 82% 29.89 in 10.0 mi South 8.1 mph - N/A   Clear
9:15 PM 53.6 °F 48.2 °F 82% 29.90 in 10.0 mi South 9.2 mph - N/A   Clear
9:35 PM 51.8 °F 48.2 °F 88% 29.90 in 10.0 mi South 9.2 mph - N/A   Clear
9:55 PM 51.8 °F 48.2 °F 88% 29.90 in 10.0 mi South 8.1 mph - N/A   Clear
10:15 PM 51.8 °F 48.2 °F 88% 29.89 in 10.0 mi South 8.1 mph - N/A   Clear
10:35 PM 51.8 °F 46.4 °F 82% 29.89 in 10.0 mi South 9.2 mph - N/A   Clear
10:55 PM 51.8 °F 48.2 °F 88% 29.89 in 10.0 mi SSW 9.2 mph - N/A   Clear
11:15 PM 51.8 °F 48.2 °F 88% 29.88 in 10.0 mi South 9.2 mph - N/A   Clear
11:35 PM 51.8 °F 46.4 °F 82% 29.88 in 10.0 mi South 9.2 mph - N/A   Clear
11:55 PM 51.8 °F 48.2 °F 88% 29.89 in 10.0 mi South 9.2 mph - N/A   Clear